AirNav   Phillips 66 Aviation Fuel
 
 1021 users online  

M16 Steam Boat Bay Seaplane Base
East Gull Lake, Minnesota, USA

GOING TO EAST GULL LAKE?


FAA INFORMATION EFFECTIVE 16 AUGUST 2018

Location

FAA Identifier: M16
Lat/Long: 46-23-52.3000N / 094-22-15.6000W
46-23.871667N / 094-22.260000W
46.3978611 / -94.3710000
(estimated)
Elevation: 1197 ft. / 365 m (estimated)
From city: 4 miles W of EAST GULL LAKE, MN
Time zone: UTC -5 (UTC -6 during Standard Time)
Zip code: 56425

Seaplane Base Operations

Seaplane Base use: Open to the public
Activation date: 12/2014
Control tower: no
ARTCC: MINNEAPOLIS CENTER
FSS: PRINCETON FLIGHT SERVICE STATION
NOTAMs facility: PNM (NOTAM-D service available)
Attendance: UNATNDD
Segmented circle: no

Seaplane Base Communications

CTAF: 122.9
WX ASOS at BRD (10 nm E): 126.775 (218-828-3314)
WX AWOS-3 at SAZ (18 nm W): 118.325 (218-894-3666)
WX AWOS-3 at RYM (18 nm S): 142.95 or 360.775 (320-632-7500)
WX AWOS-3 at PWC (20 nm N): 118.525 (218-587-3420)

Nearby radio navigation aids

NDB name  Hdg/Dist  Freq  Var  ID
LAREW253/14.825103EBR -... .-.
STAPLES086/18.025701ESAZ ... .- --..
RIPLEY354/19.240403EXCR -..- -.-. .-.
PINE RIVER175/19.833003EPWC .--. .-- -.-.
LITTLE FALLS354/26.935903ELXL .-.. -..- .-..
AITKIN253/30.139700EAIT .- .. -
LONGVILLE188/36.439203EXVG -..- ...- --.

Seaplane Base Services

Airframe service: NONE
Powerplant service: NONE
Bottled oxygen: NONE
Bulk oxygen: NONE

Runway Information

Runway 18W/36W

Dimensions: 7657 x 725 ft. / 2334 x 221 m
Surface: water
RUNWAY 18W  RUNWAY 36W
Traffic pattern: leftleft

Seaplane Base Ownership and Management from official FAA records

Ownership: Privately-owned
Owner: CARL BENJAMIN THURINGER
11266 PINE BEACH PENINSULA
BRAINERD, MN 56401
Phone 218-855-5910
Manager: CARL BENJAMIN THURINGER
11266 PINE BEACH PENINSULA
BRAINERD, MN 56401
Phone 218-855-5910

Instrument Procedures

There are no published instrument procedures at M16.

Some nearby airports with instrument procedures:

KBRD - Brainerd Lakes Regional Airport (10 nm E)
KSAZ - Staples Municipal Airport (18 nm W)
KRYM - Ray S Miller Army Airfield (18 nm S)
KPWC - Pine River Regional Airport (20 nm N)
KLXL - Little Falls/Morrison County Airport-Lindbergh Field (27 nm S)
 
Loc | Ops | Rwys | IFR | FBO | Links
Com | Nav | Svcs | Stats | Notes


 
Aerial photo
No photo
 
Airport distance calculator
Flying to Steam Boat Bay Seaplane Base? Find the distance to fly.

From to M16

Sunrise and sunset
Times for 20-Aug-2018
 Local
(UTC-5)
 Zulu
(UTC)
Morning civil twilight05:5110:51
Sunrise06:2311:23
Sunset20:1801:18
Evening civil twilight20:5101:51

Current date and time
Zulu (UTC)  21-Aug-2018 00:35:48
Local (UTC-5)  20-Aug-2018 19:35:48
 
METAR
KBRD 
10nm E 
202353Z AUTO 02010KT 6SM HZ BKN085 OVC110 22/13 A3003 RMK AO2 SLP168 T02170133 10250 20217 53004
KSAZ 
18nm W 
210015Z AUTO 36004KT 10SM SCT100 20/12 A3005 RMK AO2
KPWC 
19nm N 
210015Z AUTO 00000KT 10SM SCT060 SCT110 19/13 A3008 RMK AO2
TAF
KBRD 
10nm E 
201720Z 2018/2118 02010KT 4SM HZ SCT045 FM210600 36005KT 4SM BR SCT050 FM211200 35005KT 4SM BR SCT080 FM211300 35009KT P6SM FEW090
NOTAMs
Click for the latest NOTAMs
NOTAMs are issued by the DoD/FAA and will open in a separate window not controlled by AirNav.

 

 
 

Would you like to see your business listed on this page?

 If your business provides an interesting product or service to pilots, flight crews, aircraft, or users of the Steam Boat Bay Seaplane Base, you should consider listing it here.  To start the listing process, click on the button below
 
Add a business
 

Other Pages about Steam Boat Bay Seaplane Base

Update a link
 
Copyright © AirNav, LLC. All rights reserved. Privacy Policy  Contact